{"data":{"norad_id":45726,"intl_designator":"2020-037D","name":"ANDESITE","alt_names":[],"object_type":"PAYLOAD","status":"ACTIVE","operator":null,"country":"US","launch_date":"2020-06-13","launch_site_code":"RLLB","launch_vehicle":null,"mission":null,"orbit_class":"UNKNOWN","rcs_meters":null,"size_class":null,"mass_kg":null,"dimensions":null,"purposes":[],"wikipedia_slug":null,"has_3d_model":false,"image_url":null,"decayed_at":null,"tle_current":{"epoch":"2026-09-19T23:44:40.500096Z","epoch_age_seconds":114419,"freshness":"FRESH","line1":"1 45726U 20037D   26262.98935764  .00001232  00000+0  88743-4 0  9996","line2":"2 45726  97.7824  96.8131 0008200 199.8827 160.2081 15.06082137339933","mean_motion":15.06082137,"eccentricity":0.00082,"inclination_deg":97.7824,"raan_deg":96.8131,"arg_perigee_deg":199.8827,"mean_anomaly_deg":160.2081,"bstar":8.8743e-5,"rev_number":33993,"period_min":95.612315200044,"perigee_km":542.50634878359,"apogee_km":553.86551839468,"semimajor_km":6926.3229335891,"source":"CELESTRAK","updated_at":"2026-09-20T09:00:14.708879Z"}}}